Location: ?ejeti?ky
(50.4060°N, 14.9016°E)
Time: 08:06:27
(UTC+00:00)

N. Korean satellite - Pass Details

Date: 12 December 2021
Orbit: 446 x 491 km, 97.3° (Epoch: 18 January)

Event Time Altitude Azimuth Distance (km) Brightness Sun altitude
Rises 16:15:00 0° 202° (SSW) 2,496 10.9 -11.7°
Reaches altitude 10° 16:17:31 10° 221° (SW) 1,616 10.3 -12.1°
Maximum altitude 16:20:01 19° 267° (W) 1,180 9.6 -12.4°
Drops below altitude 10° 16:22:30 10° 314° (NW) 1,608 9.5 -12.8°
Sets 16:25:00 0° 333° (NNW) 2,480 10.2 -13.2°
